AirNav   Bose ProFlight Aviation Headset
 
 318 users online  

W34 Shiocton Airport
Shiocton, Wisconsin, USA

GOING TO SHIOCTON?


FAA INFORMATION EFFECTIVE 13 SEPTEMBER 2018

Location

FAA Identifier: W34
Lat/Long: 44-27-16.9410N / 088-33-42.3640W
44-27.282350N / 088-33.706067W
44.4547058 / -88.5617678
(estimated)
Elevation: 769 ft. / 234 m (estimated)
Variation: 01W (1985)
From city: 1 mile NE of SHIOCTON, WI
Time zone: UTC -5 (UTC -6 during Standard Time)
Zip code: 54170

Airport Operations

Airport use: Open to the public
Activation date: 06/1986
Control tower: no
ARTCC: MINNEAPOLIS CENTER
FSS: GREEN BAY FLIGHT SERVICE STATION
NOTAMs facility: GRB (NOTAM-D service available)
Attendance: UNATNDD
ARPT CLSD 15 MAR - 25 APR.
Wind indicator: yes
Segmented circle: no

Airport Communications

CTAF: 122.9
WX AWOS-3 at ATW (12 nm S): PHONE 920-832-2597
WX AWOS-3 at CLI (12 nm NW): 120.675 (715-823-7691)
WX ASOS at GRB (19 nm E): PHONE 920-494-7140
WX AWOS-3 at EZS (20 nm N): 118.65 (715-526-2967)

Nearby radio navigation aids

VOR radial/distance  VOR name  Freq  Var
GRBr248/16.8GREEN BAY VORTAC115.5001E
OSHr357/27.9OSHKOSH VORTAC111.8002E

 
NDB name  Hdg/Dist  Freq  Var  ID
FAMIS276/13.835602WGR --. .-.
WAUPACA071/20.938201WPCZ .--. -.-. --..

Airport Services

Fuel available: MOGAS
Parking: tiedowns

Runway Information

Runway 18/36

Dimensions: 2340 x 110 ft. / 713 x 34 m
RY 18/36 REMEASURED.
Surface: turf, in good condition
Runway edge markings: RY 18/36 MKD WITH ORANGE & WHITE BARRELS.
RUNWAY 18  RUNWAY 36
Latitude: 44-27.596667N44-27.234667N
Longitude: 088-33.639333W088-33.639333W
Elevation: 770.0 ft.770.0 ft.
Traffic pattern: leftleft
Runway end identifier lights: yes
18/36 NSTD REIL; SOLAR POWERED.
yes
Obstructions: 93 ft. trees, 2600 ft. from runway, 150 ft. left of centerline, 28:1 slope to clear63 ft. trees, 1200 ft. from runway, 100 ft. right of centerline, 19:1 slope to clear

Runway 9/27

Dimensions: 1415 x 110 ft. / 431 x 34 m
RY 09/27 REMEASURED.
Surface: turf, in good condition
Runway edge markings: RY 09/27 MKD WITH ORANGE & WHITE BARRELS.
RUNWAY 9  RUNWAY 27
Latitude: 44-27.182333N44-27.182333N
Longitude: 088-33.973833W088-33.671667W
Elevation: 770.0 ft.770.0 ft.
Traffic pattern: leftleft
Obstructions: 75 ft. trees, 1500 ft. from runway, 100 ft. right of centerline, 20:1 slope to clear16 ft. road, 320 ft. from runway, 150 ft. left of centerline, 20:1 slope to clear

Airport Ownership and Management from official FAA records

Ownership: Privately-owned
Owner: SHIOCTON FLYERS CLUB INC
7551 PARK AVE
SHIOCTON, WI 54170
Phone 920-986-3690
Manager: PATRICK J VAN STRATEN
7551 PARK AVE
SHIOCTON, WI 54170
Phone 920-986-3690

Airport Operational Statistics

Aircraft based on the field: 16
Single engine airplanes: 13
Ultralights: 3
  • ULTRALIGHT ACTIVITY ON & INVOF ARPT.
    
Aircraft operations: avg 77/week *
75% local general aviation
25% transient general aviation
* for 12-month period ending 21 September 2017

Additional Remarks

DEER ACTIVITY ON AND INVOF ARPT.

Instrument Procedures

There are no published instrument procedures at W34.

Some nearby airports with instrument procedures:

KATW - Appleton International Airport (12 nm S)
KCLI - Clintonville Municipal Airport (12 nm NW)
KGRB - Green Bay-Austin Straubel International Airport (19 nm E)
KEZS - Shawano Municipal Airport (20 nm N)
KPCZ - Waupaca Municipal Airport (21 nm W)
 
Loc | Ops | Rwys | IFR | FBO | Links
Com | Nav | Svcs | Stats | Notes


 
Area around W34 (Shiocton Airport)
 
Road maps at: MapQuest Bing Google
 
Aerial photo
No photo
 
Sectional chart

 
Airport distance calculator
Flying to Shiocton Airport? Find the distance to fly.

From to W34

Sunrise and sunset
Times for 19-Sep-2018
 Local
(UTC-5)
 Zulu
(UTC)
Morning civil twilight06:1011:10
Sunrise06:3911:39
Sunset18:5723:57
Evening civil twilight19:2600:26

Current date and time
Zulu (UTC)  19-Sep-2018 08:24:25
Local (UTC-5)  19-Sep-2018 03:24:25
 
METAR
KCLI 
11nm NW 
190755Z AUTO 05004KT 10SM OVC019 15/13 A3006 RMK AO2 T01500129
KATW 
12nm S 
190755Z AUTO 05004KT 10SM OVC013 16/11 A3004 RMK AO2
KGRB 
18nm E 
190753Z AUTO 06007KT 10SM OVC015 16/13 A3006 RMK AO2 SLP179 T01560133
KEZS 
20nm N 
190755Z AUTO 06006KT 4SM BR OVC005 15/14 A3007 RMK AO2 T01500136
KPCZ 
21nm W 
190755Z AUTO 00000KT 10SM OVC009 17/16 A3006 RMK AO2 T01680155
TAF
KATW 
12nm S 
190520Z 1906/2006 07005KT P6SM BKN018 TEMPO 1906/1910 SCT018 OVC040 FM191000 07006KT P6SM OVC023 FM191400 09007KT P6SM -SHRA OVC014 FM192300 10011KT 6SM -SHRA BR OVC009 PROB30 2002/2006 2SM -TSRA BR BKN004CB
KGRB 
18nm E 
190541Z 1906/2006 07005KT P6SM BKN025 TEMPO 1906/1910 SCT025 OVC040 FM191300 08006KT P6SM -SHRA OVC016 FM192300 06012KT 6SM -SHRA BR OVC009 PROB30 2002/2006 2SM -TSRA BR BKN005CB
NOTAMs
Click for the latest NOTAMs
NOTAMs are issued by the DoD/FAA and will open in a separate window not controlled by AirNav.

 

 
 

FBO, Fuel Providers, and Aircraft Ground Support

  
 Business Name 
 
 Contact 
 
 Services / Description 
 
Fuel Prices
 
Comments
  
Shiocton Flyers Club, Inc. 920-986-3690
no information available

If you are affiliated with Shiocton Flyers Club, Inc. and would like to show here your services, contact info, web link, logo, and more, click here
Mogas
RA $3.00 
 Updated 01-Jul-2015
 
   write
RA=Restricted
Update Fuel Prices
 

Would you like to see your business listed on this page?

 If your business provides an interesting product or service to pilots, flight crews, aircraft, or users of the Shiocton Airport, you should consider listing it here.  To start the listing process, click on the button below
 
Add a business
 

Other Pages about Shiocton Airport

www.shioctonairport.com
Page from the Wisconsin airport directory (PDF)
 
Update a link
 
Copyright © AirNav, LLC. All rights reserved. Privacy Policy  Contact